Brownsville South Padre Island International Airport
KBRO : now visible

Airfield :











YOU CAN JOIN US ON...

 
LOGIN :

Register | Disclaimer

   EN    FR    IT 

 









Legend :    VFR   Marginal VFR   IFR   Intensive IFR   Very Intensive IFR
Visi :
Ceiling :
>= 8 km
>= 3000ft
5 to 8 km
1000 to 3000 ft
1500m to 5 km
500 to 1000 ft
800 to 1500m
200 to 500 ft
< 800m
< 200 ft
Symbols :   Thunderstorms  Fog  Heavy snow  Heavy precipitations  Wind > 20 kt






- Airport Elevation : 22 ft
- IATA code : BRO


KBRO - Brownsville South Padre Island International

CURRENT METAR :
  • 210453Z AUTO 13003KT 10SM CLR 18/15 A3008 RMK AO2 SLP185 T01780150

EXPIRED METARs :
  • 210353Z 13003KT 10SM CLR 19/15 A3007 RMK AO2 SLP180 T01890150
  • 210253Z 11004KT 10SM CLR 20/15 A3004 RMK AO2 SLP172 T02000150 53025

TAF KBRO
Valid from the 21 at 06:00 until the 22 at 06:00 UTC


210520Z 2106/2206 13005KT P6SM SKC
FM211200 03005KT P6SM BKN050
FM211700 05012G20KT P6SM BKN045
FM220200 08009KT P6SM BKN050
KZHU FIR / North America



MET'MAP, your aeronautical weather chart ! - Copyright ORBIFLY December 2007 - Disclaimer

ORBIFLY MET'MAP TEAM :

Programming & Development : Alexandra Zaïnal
Concept & original design : Baudouin d'Aumeries
Assistance for programming : Marc-Olivier Méhu
Technical & hardware support : Manuel Goepfert

Contact : metmap@orbifly.com




SOURCES & CREDITS :

   NOAA       Earth
Advisory